[[{"header":{"parameterUnit":"m.s-1","parameterCategory":1,"la1":30.2991,"la2":30.254,"lo1":-89.0895,"lo2":-89.0444,"dy":0.0017,"dx":0.0017,"nx":28,"ny":28,"refTime":"2025-12-31T03:00:00:Z","depth":0,"parameterNumber":2,"parameterNumberName":"U-component_of_WINDS"},"data":[0,0,0,0,0,0,0,0,0,0,0,0,0,0,0,0,0,0,0,0,0,0,0,0,0,0,0,0,0,0,0,0,0,0,0,0,0,0,0,0,0,0,0,0,0,0,0,0,0,0,0,0,0,0,0,0,0,0,3.9578,3.958,0,3.9749,3.975,3.9752,3.9741,3.9739,3.9736,3.9734,3.9909,3.9916,3.9923,0,0,0,0,0,0,0,0,0,0,0,0,0,3.9245,3.9251,3.9578,3.958,3.9582,3.9748,3.9751,3.9753,3.9742,3.9739,3.9736,3.9733,3.9907,3.9915,3.9924,0,0,0,0,0,0,0,0,0,0,0,0,0,3.94,3.9253,3.9578,3.9597,3.96,3.9748,3.9751,3.9753,3.9742,3.9739,3.9735,3.9731,3.9904,3.9914,3.9925,4.0065,0,0,3.9957,3.9961,0,0,0,0,0,0,0,0,3.9391,3.9412,3.9592,3.9596,3.96,3.972,3.9697,3.9858,3.9743,3.9688,3.9734,3.973,3.9849,3.9864,3.9904,4.0073,4.008,3.9958,3.9964,3.9969,3.9972,0,0,0,0,0,0,0,3.938,3.9405,3.9646,3.9595,3.9599,3.9597,3.9615,3.9728,3.9788,3.9693,3.9693,3.9713,3.9851,3.9894,3.9908,4.0083,3.9957,3.9967,3.9973,3.9977,4.0376,4.038,0,0,0,0,0,0,3.9365,3.9396,3.964,3.9651,3.9484,3.9606,3.9626,3.9685,3.9787,3.9798,3.9716,3.9712,3.9878,3.9896,3.9914,4.0086,3.9969,3.9978,3.9984,4.0372,4.0377,4.0382,0,0,0,0,0,0,3.9358,3.9387,3.9633,3.9523,3.9554,3.9616,3.9682,3.969,3.9734,3.9804,3.9815,3.9749,3.9876,3.99,4.0028,4.0092,3.9983,3.9993,4.0367,4.0374,4.038,4.0429,0,0,0,0,0,0,3.9349,3.9385,3.9438,3.9525,3.956,3.9743,3.9686,3.9696,3.9752,3.9748,3.9838,3.9849,3.9875,4.0012,4.0038,4.0104,4.0001,4.0362,4.037,4.0378,4.0422,4.0436,4.0448,0,0,0,0,0,3.9337,3.9445,3.9441,3.947,3.9628,3.9747,3.9767,3.9794,3.9757,3.9812,3.9857,3.9846,4.008,4.0025,4.0054,4.0125,4.0358,4.0368,4.0377,4.0416,4.0433,4.0448,0,0,0,0,0,0,3.9364,3.9456,3.9453,3.9592,3.9662,3.9745,3.9814,3.9812,3.9894,3.9887,3.9917,3.9937,4.0066,4.0108,4.0045,4.0266,4.0214,4.023,4.0234,4.0251,4.0264,4.0251,4.001,0,0,0,0,0,3.9386,3.9474,3.9551,3.9666,3.9701,3.9752,3.9805,3.9819,3.9893,3.9922,3.9977,4.0049,4.0139,4.0197,4.0284,4.0428,4.0448,4.0491,4.0504,4.0515,4.0528,4.0609,4.0629,4.0414,4.0414,4.0414,0,0,3.9433,3.9494,3.9548,3.9673,3.9729,3.982,3.9777,3.9875,3.9943,3.9937,4.0061,4.0104,4.0187,4.0324,4.0387,4.0363,4.0592,4.0527,4.0535,4.0543,4.0621,4.0641,4.0659,4.042,4.0419,4.0418,0,0,3.9565,3.962,3.9723,3.978,3.9865,3.9898,3.9923,4.0007,4.0035,4.016,4.0158,4.024,4.0394,4.0453,4.0503,4.0659,4.0653,4.0687,4.0756,4.0834,4.0851,4.0867,4.0923,4.0943,4.07,4.07,4.07,0,3.9612,3.9749,3.9776,3.9875,3.9931,3.993,4.0035,4.0089,4.0198,4.0237,4.0208,4.0402,4.0458,4.0609,4.0647,4.0688,4.0717,4.0676,4.0847,4.0862,4.0877,4.0931,4.0952,4.0704,4.0703,4.0703,4.0702,0,3.9804,3.9899,3.9972,4.0077,4.0141,4.0243,4.0286,4.0347,4.0357,4.0393,4.0522,4.0588,4.0689,4.0726,4.0736,4.0879,4.0862,4.084,4.0788,4.09,4.0952,4.0973,4.0709,4.0707,4.0706,4.0705,0,0,3.9957,4.0076,4.0103,4.0151,4.0246,4.032,4.0422,4.052,4.0573,4.0649,4.0736,4.0867,4.0847,4.0904,4.0922,4.099,4.1111,4.096,4.0962,4.0986,4.1273,4.1289,4.1313,4.1107,4.1111,4.1114,4.1267,0,4.0098,4.0279,4.0307,4.0466,4.0555,4.0556,4.0645,4.0713,4.075,4.0832,4.0873,4.0965,4.0933,4.0967,4.1035,4.1081,4.1169,4.1071,4.1189,4.1193,4.1168,4.1339,4.1356,4.1497,4.1287,4.129,4.1293,0,4.0288,4.0369,4.0537,4.062,4.0659,4.0738,4.0831,4.0909,4.0986,4.1009,4.1073,4.1082,4.1189,4.1134,4.1282,4.1215,4.1265,4.1295,4.1301,4.1313,4.1249,4.1356,4.1542,4.1563,4.1324,4.1322,4.132,0,4.0383,4.0534,4.0654,4.0696,4.0796,4.0852,4.0897,4.097,4.1028,4.111,4.1148,4.1241,4.1292,4.1364,4.1398,4.1354,4.1545,4.1491,4.1567,4.1566,4.1606,4.1603,4.1803,4.1639,4.1638,4.1638,4.1637,0,4.0538,4.0641,4.0699,4.0773,4.0889,4.092,4.1034,4.1077,4.1143,4.1226,4.1233,4.1311,4.1351,4.1436,4.1464,4.1582,4.1605,4.1627,4.1633,4.1626,4.1624,4.1659,4.1651,4.1643,4.1642,4.1641,4.164,0,4.0664,4.0706,4.0838,4.0922,4.0946,4.1028,4.11,4.1173,4.121,4.1315,4.1341,4.14,4.15,4.1541,4.1664,4.1682,4.1819,4.1818,4.1793,4.1795,4.1867,4.186,4.2097,4.213,4.1944,4.1945,4.1947,0,4.076,4.084,4.0933,4.0989,4.1035,4.1125,4.1184,4.1219,4.128,4.1375,4.1437,4.1536,4.1618,4.1777,4.1831,4.1925,4.1926,4.2003,4.194,4.1931,4.1928,4.1922,4.1931,4.2014,4.2016,4.2017,4.2019,0,4.0927,4.0945,4.1029,4.1122,4.1193,4.1267,4.134,4.1386,4.1432,4.1501,4.1603,4.1666,4.1791,4.189,4.1988,4.2034,4.2035,4.2038,4.206,4.2054,4.2036,4.2047,4.1824,4.2032,4.2031,4.203,4.2029,4.2029,4.1042,4.1112,4.1189,4.1284,4.1343,4.1411,4.1483,4.153,4.1615,4.172,4.1735,4.1844,4.1921,4.2052,4.2103,4.2189,4.217,4.2202,4.221,4.2218,4.2223,4.2023,4.2207,4.2207,4.2206,4.2206,4.2206,0,4.1209,4.1259,4.1345,4.1447,4.1522,4.1516,4.1597,4.166,4.1756,4.1828,4.1908,4.2026,4.2122,4.2184,4.2282,4.2339,4.2342,4.2363,4.2359,4.237,4.2234,4.2205,4.236,4.236,4.236,4.236,4.2359,4.2359,4.1305,4.1425,4.1451,4.1601,4.165,4.1757,4.1804,4.1867,4.1925,4.2056,4.2136,4.2176,4.2244,4.2347,4.2435,4.2451,4.2487,4.251,4.2524,4.2396,4.238,4.2365,4.2337,4.2517,4.2517,4.2653,4.2655,4.2655]},{"header":{"parameterUnit":"m.s-1","parameterCategory":1,"la1":30.2991,"la2":30.254,"lo1":-89.0895,"lo2":-89.0444,"dy":0.0017,"dx":0.0017,"nx":28,"ny":28,"refTime":"2025-12-31T03:00:00:Z","depth":0,"parameterNumber":3,"parameterNumberName":"V-component_of_WINDS"},"data":[0,0,0,0,0,0,0,0,0,0,0,0,0,0,0,0,0,0,0,0,0,0,0,0,0,0,0,0,0,0,0,0,0,0,0,0,0,0,0,0,0,0,0,0,0,0,0,0,0,0,0,0,0,0,0,0,0,0,-0.8127,-0.8128,0,-0.8223,-0.8224,-0.8225,-0.8254,-0.8254,-0.8253,-0.8253,-0.8352,-0.8355,-0.8358,0,0,0,0,0,0,0,0,0,0,0,0,0,-0.7973,-0.7976,-0.8127,-0.8128,-0.813,-0.8222,-0.8224,-0.8225,-0.8254,-0.8254,-0.8253,-0.8252,-0.8351,-0.8354,-0.8358,0,0,0,0,0,0,0,0,0,0,0,0,0,-0.8052,-0.7977,-0.8127,-0.8155,-0.8159,-0.8222,-0.8224,-0.8225,-0.8254,-0.8254,-0.8253,-0.8252,-0.8349,-0.8354,-0.8358,-0.8401,0,0,-0.8373,-0.8375,0,0,0,0,0,0,0,0,-0.8047,-0.8057,-0.815,-0.8154,-0.8158,-0.8226,-0.8206,-0.8284,-0.8254,-0.8218,-0.8253,-0.8252,-0.831,-0.8318,-0.8338,-0.8406,-0.841,-0.8373,-0.8376,-0.8378,-0.8379,0,0,0,0,0,0,0,-0.8042,-0.8053,-0.8165,-0.8151,-0.8156,-0.8164,-0.8175,-0.8221,-0.8267,-0.8221,-0.8224,-0.8234,-0.8312,-0.8333,-0.834,-0.8411,-0.8373,-0.8377,-0.838,-0.8382,-0.8521,-0.8522,0,0,0,0,0,0,-0.8031,-0.8049,-0.8162,-0.8168,-0.8099,-0.8168,-0.8179,-0.8205,-0.8267,-0.8275,-0.8235,-0.8235,-0.8326,-0.8335,-0.8344,-0.8399,-0.8378,-0.8382,-0.8385,-0.852,-0.8522,-0.8523,0,0,0,0,0,0,-0.8028,-0.8041,-0.8158,-0.8109,-0.8125,-0.8171,-0.8199,-0.8207,-0.8228,-0.8277,-0.8286,-0.8247,-0.8325,-0.8337,-0.8387,-0.8403,-0.8384,-0.8388,-0.8519,-0.8521,-0.8522,-0.8509,0,0,0,0,0,0,-0.8023,-0.804,-0.8055,-0.8109,-0.8127,-0.8199,-0.82,-0.8209,-0.8235,-0.8237,-0.8291,-0.8299,-0.8326,-0.838,-0.8392,-0.8409,-0.8392,-0.8518,-0.852,-0.8522,-0.8508,-0.8509,-0.8511,0,0,0,0,0,-0.8018,-0.8048,-0.8056,-0.807,-0.8148,-0.82,-0.821,-0.8239,-0.8236,-0.8253,-0.8285,-0.8298,-0.8399,-0.8385,-0.8398,-0.8417,-0.8517,-0.8519,-0.8522,-0.8507,-0.8509,-0.8511,0,0,0,0,0,0,-0.7995,-0.8055,-0.8065,-0.8113,-0.8151,-0.8204,-0.8226,-0.824,-0.828,-0.828,-0.8315,-0.8327,-0.8375,-0.8401,-0.8384,-0.8463,-0.8459,-0.8464,-0.8443,-0.8446,-0.8447,-0.844,-0.8396,0,0,0,0,0,-0.7995,-0.8032,-0.8083,-0.8121,-0.8139,-0.8179,-0.8203,-0.8223,-0.8263,-0.828,-0.8315,-0.8355,-0.8396,-0.8422,-0.8463,-0.8512,-0.8525,-0.8532,-0.8533,-0.8534,-0.8538,-0.8568,-0.8572,-0.853,-0.853,-0.853,0,0,-0.7997,-0.8034,-0.8055,-0.8117,-0.8149,-0.8187,-0.8193,-0.8232,-0.8261,-0.8286,-0.8335,-0.8363,-0.841,-0.846,-0.8483,-0.8483,-0.8553,-0.8537,-0.8537,-0.8541,-0.857,-0.8574,-0.8578,-0.8531,-0.8531,-0.8531,0,0,-0.8019,-0.8051,-0.8086,-0.8118,-0.8166,-0.8193,-0.8201,-0.8253,-0.8273,-0.8322,-0.8342,-0.8378,-0.8447,-0.848,-0.8506,-0.8543,-0.8556,-0.8555,-0.8563,-0.8591,-0.8595,-0.8598,-0.8612,-0.8617,-0.8559,-0.8559,-0.8559,0,-0.8015,-0.8072,-0.8103,-0.8142,-0.8169,-0.8194,-0.8231,-0.826,-0.8319,-0.8338,-0.8336,-0.8425,-0.8458,-0.8517,-0.8526,-0.8546,-0.8558,-0.8549,-0.8592,-0.8595,-0.8599,-0.8613,-0.8618,-0.8559,-0.8559,-0.8559,-0.8559,0,-0.8066,-0.8105,-0.8128,-0.8184,-0.8214,-0.8252,-0.829,-0.8316,-0.8334,-0.8361,-0.8413,-0.8454,-0.8504,-0.8519,-0.8536,-0.8581,-0.858,-0.8584,-0.8582,-0.8602,-0.8616,-0.8621,-0.8558,-0.8558,-0.8558,-0.8558,0,0,-0.8075,-0.8149,-0.8157,-0.8183,-0.8239,-0.827,-0.831,-0.8359,-0.8382,-0.8422,-0.8457,-0.8516,-0.8521,-0.8551,-0.8572,-0.8597,-0.8626,-0.86,-0.8601,-0.8604,-0.8679,-0.8676,-0.8681,-0.8635,-0.8636,-0.8637,-0.8676,0,-0.8105,-0.8176,-0.8206,-0.8264,-0.8301,-0.8326,-0.8361,-0.8399,-0.8427,-0.8464,-0.8494,-0.8536,-0.8539,-0.8557,-0.8583,-0.8617,-0.8641,-0.8614,-0.8669,-0.8671,-0.8657,-0.8688,-0.8684,-0.8719,-0.8681,-0.8682,-0.8683,0,-0.8149,-0.819,-0.8251,-0.8304,-0.8321,-0.8351,-0.8399,-0.8434,-0.8479,-0.8497,-0.853,-0.8551,-0.8595,-0.8589,-0.8652,-0.8632,-0.8657,-0.8677,-0.8679,-0.8686,-0.8678,-0.8697,-0.8731,-0.8736,-0.8692,-0.8691,-0.869,0,-0.8151,-0.8221,-0.8268,-0.8289,-0.8351,-0.8373,-0.8399,-0.8444,-0.8471,-0.8514,-0.8533,-0.8579,-0.8605,-0.8642,-0.8675,-0.8667,-0.8735,-0.8731,-0.8752,-0.8751,-0.8765,-0.8764,-0.8804,-0.878,-0.878,-0.878,-0.8779,0,-0.8182,-0.8219,-0.827,-0.8298,-0.8341,-0.8375,-0.8417,-0.8446,-0.8485,-0.8521,-0.8545,-0.8578,-0.862,-0.8659,-0.8685,-0.8733,-0.8745,-0.8762,-0.8768,-0.876,-0.8758,-0.8776,-0.8775,-0.8781,-0.8781,-0.878,-0.878,0,-0.8191,-0.8226,-0.8279,-0.8333,-0.8348,-0.8377,-0.8425,-0.8454,-0.8483,-0.8528,-0.854,-0.8586,-0.8633,-0.867,-0.8731,-0.8749,-0.8801,-0.8808,-0.8786,-0.8789,-0.8808,-0.8806,-0.8862,-0.8872,-0.884,-0.8841,-0.8841,0,-0.8208,-0.8238,-0.8296,-0.8321,-0.8348,-0.8388,-0.8417,-0.8452,-0.8482,-0.8536,-0.8559,-0.8608,-0.8649,-0.8724,-0.8763,-0.8811,-0.8819,-0.8836,-0.8827,-0.8818,-0.8821,-0.8819,-0.8823,-0.8837,-0.8837,-0.8837,-0.8837,0,-0.8236,-0.8252,-0.8292,-0.8339,-0.8373,-0.8412,-0.8451,-0.8471,-0.8514,-0.8546,-0.8594,-0.8626,-0.8689,-0.8738,-0.879,-0.8819,-0.8836,-0.884,-0.8848,-0.8839,-0.8826,-0.8835,-0.8789,-0.8839,-0.8838,-0.8838,-0.8838,-0.8838,-0.8251,-0.8278,-0.8324,-0.8368,-0.8402,-0.8438,-0.8469,-0.8502,-0.8543,-0.8596,-0.8615,-0.8666,-0.8712,-0.8784,-0.8813,-0.8854,-0.8855,-0.8866,-0.8868,-0.8871,-0.887,-0.8819,-0.8864,-0.8864,-0.8864,-0.8864,-0.8864,0,-0.828,-0.8311,-0.8351,-0.8406,-0.8441,-0.8454,-0.8498,-0.8528,-0.8571,-0.8613,-0.8653,-0.8709,-0.8757,-0.8801,-0.8851,-0.8876,-0.8885,-0.8888,-0.8887,-0.8894,-0.8866,-0.8855,-0.888,-0.888,-0.888,-0.888,-0.888,-0.888,-0.83,-0.8347,-0.8369,-0.8435,-0.8466,-0.8515,-0.8539,-0.8574,-0.8607,-0.8669,-0.8709,-0.8737,-0.878,-0.8834,-0.8879,-0.8891,-0.8909,-0.891,-0.8924,-0.8897,-0.8895,-0.8893,-0.8883,-0.8913,-0.8913,-0.8948,-0.8949,-0.8949]}]]